Vorticity
10 10 10 11 11 10 9 10 10 9 11 10 7 10 10 8 10 12 10 10 11 11 11 11 12 12 12 13 12 10 10 10 12 10 10 11 7 8 9 8 9 8 5 2 3 6 7 7 7 8 9 11 14 15 13 12 10 10 9 8 6 5 6 7 8 9 10 11 11 10 8 6 6 6 7 8 10 11 11 12 12 13 15 14 13 13 14 15 12 11 9 8 7 2 1 4 5
12 11 10 10 9 9 9 9 9 10 11 11 10 7 8 13 13 11 11 12 12 12 12 12 12 11 11 11 9 9 10 8 8 8 6 5 4 6 6 7 7 6 7 6 7 8 6 7 8 11 14 18 19 17 15 11 9 8 6 5 6 7 7 9 10 12 12 11 9 7 8 10 12 14 15 15 14 14 13 13 14 16 16 14 13 12 13 14 14 12 9 6 5 1 4 11 7
12 12 12 12 11 10 9 9 9 9 9 12 15 7 8 13 10 11 13 12 12 12 12 12 12 11 11 10 9 9 8 7 7 7 6 7 8 9 9 8 6 6 8 8 8 6 7 11 13 15 17 17 15 12 10 8 7 6 6 6 8 9 10 12 12 10 8 7 8 13 17 19 21 21 21 20 20 18 17 18 19 18 15 14 13 14 13 14 16 15 11 8 10 7 7 13 11
11 10 11 12 13 12 10 11 8 9 13 11 11 10 11 11 8 12 12 12 13 12 12 12 12 10 9 8 8 8 7 6 7 7 7 7 8 8 6 5 7 7 7 6 5 8 12 14 14 14 13 11 9 7 7 6 6 6 7 9 11 12 11 9 7 7 9 14 19 22 22 21 21 22 23 23 22 22 22 20 18 18 17 16 15 17 16 16 17 17 19 13 11 13 11 12 9
20 17 14 13 13 13 14 13 12 12 11 6 6 8 10 11 12 12 12 12 12 11 11 10 10 9 8 8 7 7 6 6 8 6 6 6 5 4 5 6 8 6 5 6 9 14 14 13 13 12 10 8 6 6 6 6 7 8 11 13 12 8 6 8 15 22 27 28 25 20 17 16 17 19 19 18 17 16 16 15 14 15 15 16 18 20 19 20 20 17 20 17 12 11 10 11 8
23 24 21 18 14 14 15 14 17 12 -0 -2 5 8 4 6 11 11 11 10 9 9 8 8 8 6 7 6 6 7 6 6 7 7 8 8 7 6 8 8 7 5 7 11 15 15 13 13 12 9 7 6 6 7 6 7 9 11 13 10 7 9 16 26 31 31 28 23 20 19 20 20 20 17 14 12 11 9 8 9 12 14 15 17 19 21 20 21 24 17 14 19 18 11 7 12 14
20 24 23 20 17 15 15 13 15 12 5 5 7 12 8 6 10 10 10 9 7 7 7 8 6 6 9 7 6 7 7 5 7 8 8 7 8 8 8 8 7 8 12 15 16 14 12 11 8 6 7 6 7 7 7 9 10 12 10 7 12 22 27 26 19 14 13 14 15 18 22 25 26 22 19 17 15 13 11 13 13 17 18 19 22 20 18 20 22 17 12 19 21 16 14 15 15
18 22 23 22 19 16 16 14 12 10 11 13 10 11 12 11 11 10 10 9 9 9 8 7 6 6 7 8 8 8 8 8 10 8 7 7 6 7 9 10 9 12 16 16 14 12 10 7 6 7 6 7 7 7 9 10 12 11 7 12 21 20 15 12 8 8 8 11 11 10 13 16 18 18 20 23 26 22 14 14 14 18 19 18 21 17 18 20 15 11 13 18 17 15 14 13 11
14 17 21 22 20 17 14 11 12 15 12 12 14 12 10 11 11 8 7 6 8 8 8 7 7 6 6 9 8 8 11 9 8 8 10 10 7 10 11 10 12 16 17 13 10 8 6 6 6 6 7 8 7 9 11 11 12 9 10 17 14 4 4 9 14 16 10 8 10 8 7 7 8 10 13 15 19 16 10 15 16 18 20 17 15 13 14 13 12 15 16 15 11 10 10 10 10
11 14 18 19 20 19 17 13 11 16 15 11 13 12 10 10 9 7 6 6 6 7 10 9 7 10 13 17 13 10 11 8 4 6 11 12 12 11 9 12 16 16 12 9 7 5 5 5 6 7 8 8 8 11 11 12 10 8 15 13 2 -1 3 9 14 18 14 9 8 9 8 6 7 10 16 19 20 17 16 22 18 13 15 14 15 17 16 14 21 22 13 10 8 8 9 9 9
9 13 13 12 16 14 14 19 16 14 16 15 12 11 11 9 8 7 7 7 7 5 8 8 5 3 4 9 16 14 9 8 7 9 11 10 9 9 12 19 16 10 7 5 4 4 4 5 7 8 8 8 10 12 10 10 8 10 17 5 -2 -0 1 10 11 12 18 14 9 14 14 9 9 13 21 27 27 22 18 20 18 17 18 16 18 20 20 18 19 14 7 9 8 8 8 9 9
9 11 10 10 14 12 10 17 19 15 15 15 12 11 11 9 9 8 7 8 7 6 6 8 7 8 5 -0 8 16 15 16 17 13 7 5 11 18 21 16 8 5 4 3 3 3 4 5 7 8 8 10 12 12 9 9 8 13 17 2 -3 1 2 11 10 8 18 17 12 17 19 14 11 12 17 18 14 13 13 15 17 23 24 19 14 14 18 15 8 7 8 9 8 9 9 9 10
8 9 10 11 13 12 8 11 16 14 12 13 13 13 11 9 9 8 9 8 8 8 8 8 9 12 10 -1 2 12 17 17 12 5 4 12 22 22 15 7 5 5 2 2 3 3 4 5 7 9 10 12 13 11 8 9 9 14 18 4 -5 3 7 11 10 10 13 11 10 11 13 13 11 11 12 10 7 10 11 12 13 15 15 13 9 11 16 11 5 8 9 8 10 9 8 10 9
8 8 7 10 13 13 8 6 14 17 14 12 11 13 10 9 9 8 9 8 8 7 7 9 9 7 6 7 7 -0 1 7 2 3 15 22 20 11 5 4 3 2 1 3 3 4 5 6 8 10 11 13 13 11 7 8 11 16 18 9 2 7 10 9 9 10 9 9 8 8 9 10 10 12 13 9 6 12 15 13 12 9 9 8 8 12 14 8 7 9 8 10 10 8 8 9 9
7 8 7 10 11 14 14 7 9 14 15 13 10 11 10 9 9 9 9 8 9 8 6 7 8 6 7 15 14 5 3 6 6 14 22 17 9 4 3 3 1 1 3 4 4 4 5 6 9 11 11 14 14 10 7 8 13 17 17 13 12 12 9 7 7 9 10 10 9 10 11 12 13 13 15 15 7 8 12 10 8 8 9 9 8 10 10 7 8 8 9 10 9 8 10 9 9
9 10 10 13 10 10 14 11 8 8 13 14 8 9 9 8 10 8 10 9 7 9 7 6 10 5 5 17 21 19 13 8 13 19 16 8 4 3 2 2 2 3 4 4 4 4 4 7 10 11 12 15 14 8 7 9 14 18 16 13 13 11 8 7 7 8 10 10 10 10 10 13 15 13 15 20 14 9 10 10 11 10 8 9 10 10 8 8 8 8 8 9 8 9 10 10 10
11 13 14 15 13 10 12 14 12 7 12 14 7 9 9 8 10 6 7 8 6 9 8 9 11 2 9 23 19 13 11 13 17 15 8 4 3 2 2 2 3 4 4 4 4 4 5 7 11 12 12 15 14 8 7 9 13 14 12 11 9 8 9 9 8 7 8 9 9 9 9 9 11 13 16 21 16 9 9 10 12 10 6 8 10 10 9 9 9 8 7 7 7 9 9 10 10
11 14 16 14 11 11 15 18 13 6 12 13 7 9 9 7 9 7 7 8 6 7 10 14 7 0 13 15 6 9 13 16 13 7 4 2 2 2 2 2 3 4 4 4 4 5 5 8 12 11 11 14 13 9 7 8 9 10 10 9 8 9 10 11 10 9 9 8 7 9 10 10 9 11 14 17 13 8 9 10 10 9 7 8 8 8 8 9 9 8 6 6 7 8 8 8 7
12 15 17 14 15 17 20 21 13 8 12 11 7 9 10 8 9 10 9 9 8 6 9 17 13 9 12 6 8 17 15 12 8 4 2 1 2 2 2 3 3 4 5 5 5 5 6 9 12 11 10 12 15 12 7 7 7 8 9 9 9 9 10 11 11 11 10 9 9 10 11 12 10 9 11 12 11 9 9 10 9 7 7 9 8 8 8 8 9 7 7 7 7 8 9 9 7
13 13 13 12 18 24 26 22 13 10 10 9 9 9 9 9 10 11 10 9 10 10 12 16 17 14 11 12 18 17 10 7 3 2 1 1 2 2 3 3 4 5 5 5 5 6 7 9 11 10 10 11 14 14 9 6 6 7 8 9 10 10 9 9 10 10 10 9 10 11 11 10 9 8 9 9 9 8 8 8 9 8 9 10 9 9 8 9 9 9 9 9 8 9 10 9 7
15 13 11 11 13 20 25 21 14 12 9 8 9 9 9 8 8 8 10 14 14 18 21 14 12 15 15 18 16 8 5 3 1 2 2 2 3 4 4 4 5 5 5 5 5 7 6 8 10 11 11 11 12 14 11 8 7 7 8 9 9 8 8 7 7 7 8 9 11 11 9 9 9 8 9 9 9 8 8 9 10 10 11 10 10 9 8 9 10 10 10 10 10 11 11 9 9
15 14 13 13 12 14 17 15 13 12 10 9 8 8 8 4 8 13 17 26 24 18 20 15 12 17 17 13 7 4 3 1 2 2 2 4 4 5 6 6 6 6 5 4 4 6 6 6 9 11 12 11 10 12 13 12 10 8 8 8 8 7 8 7 7 6 7 8 9 9 8 9 9 9 10 11 10 10 9 9 10 11 11 11 11 10 9 10 11 11 11 12 12 11 11 10 10
13 14 15 16 16 17 16 14 13 12 12 12 11 12 13 14 23 28 23 27 23 11 14 16 14 15 10 5 2 2 2 2 3 2 3 4 5 8 9 8 7 7 5 4 4 5 6 6 7 9 12 13 12 11 12 14 14 12 9 8 8 8 8 8 8 7 7 6 6 6 7 8 9 10 10 9 10 10 10 10 10 10 10 11 11 11 10 11 12 12 12 12 12 10 9 8 9
12 13 16 16 18 20 20 20 19 19 20 20 21 21 22 23 25 22 18 22 19 12 15 13 10 8 3 2 1 1 2 2 2 2 4 6 8 11 10 10 9 8 5 4 4 5 6 6 6 7 9 12 13 12 11 11 12 13 12 11 10 10 9 9 9 8 7 6 6 5 6 6 8 9 9 8 8 8 9 9 10 9 10 10 10 9 8 9 9 9 10 10 10 8 8 8 7
10 11 12 13 14 15 15 16 17 17 19 20 21 20 17 17 17 14 15 21 17 11 11 6 3 2 0 1 0 1 2 2 3 6 9 10 11 11 10 11 10 8 6 5 4 5 6 6 6 6 6 8 10 12 13 12 11 10 9 10 11 11 11 11 10 10 8 7 6 5 5 6 7 7 7 7 7 7 8 8 9 9 10 10 9 9 9 11 11 12 13 12 12 11 10 10 9
7 8 8 9 9 8 8 9 11 12 13 14 14 14 12 13 14 14 13 13 9 6 3 1 1 0 1 1 0 2 3 5 8 10 11 10 9 10 10 10 10 9 7 6 5 4 5 5 6 6 5 6 6 8 10 12 14 13 12 11 10 10 11 12 12 12 10 9 8 7 6 6 6 6 6 6 6 6 6 7 8 8 8 8 8 9 9 10 11 13 14 16 18 18 17 16 15
9 10 11 12 11 12 14 14 15 15 15 14 11 10 11 11 11 10 8 6 3 2 1 0 1 0 1 1 1 3 6 10 12 11 9 8 8 9 9 9 9 9 8 7 5 5 5 4 5 5 5 6 5 5 6 8 11 14 16 15 13 10 9 10 11 11 11 11 10 9 8 7 7 7 6 5 5 5 5 6 6 6 6 6 7 6 5 4 5 5 6 8 10 12 14 15 16
13 13 13 15 14 15 15 14 14 15 14 12 10 9 10 9 8 7 4 2 1 0 0 1 1 1 1 1 3 6 9 11 10 8 7 7 9 8 9 10 9 9 10 9 6 5 4 4 4 4 4 5 5 5 5 5 5 7 10 13 15 14 12 10 10 10 11 11 12 11 11 10 8 7 7 6 6 6 5 5 5 5 5 5 6 4 3 3 2 3 3 3 3 4 4 6 7
11 10 11 12 11 10 10 11 11 10 10 8 7 7 7 5 3 3 1 0 0 0 1 1 2 2 2 4 7 10 10 8 7 7 7 8 8 8 9 9 9 9 10 10 8 6 5 4 3 3 3 4 5 5 4 4 4 4 4 6 10 12 13 11 10 9 10 11 12 14 15 14 12 9 8 7 8 8 6 6 5 5 5 5 5 4 4 3 3 4 4 4 3 3 2 3 3
7 6 8 9 7 6 7 8 6 5 5 4 3 4 4 3 1 1 1 0 -0 1 1 2 2 3 5 8 10 9 7 6 7 7 8 8 8 9 10 9 9 9 11 12 9 8 6 3 3 3 3 4 4 4 4 4 4 5 4 4 5 7 9 11 10 9 8 9 9 10 13 15 15 13 11 9 9 9 8 8 7 7 6 5 4 4 4 3 3 3 3 4 4 4 3 3 3
6 4 5 6 5 7 6 5 4 4 3 1 3 4 3 2 1 1 1 1 1 2 2 2 4 6 8 10 9 8 6 6 6 7 8 8 9 9 9 9 9 9 12 11 9 9 7 4 3 2 3 3 4 4 5 5 4 5 5 4 4 4 5 7 9 10 9 8 6 6 8 11 14 15 13 12 11 11 10 9 8 7 6 5 5 4 4 4 4 3 3 3 3 4 4 4 4
7 6 6 6 5 6 5 5 5 3 3 3 4 3 2 2 2 2 2 2 3 4 4 5 7 9 10 9 8 6 5 5 6 7 8 8 9 9 9 9 9 10 11 10 9 10 9 6 3 3 3 2 4 6 6 6 5 5 4 4 5 5 5 5 6 7 9 9 8 7 6 8 10 12 13 13 12 11 10 8 7 7 6 6 5 4 4 3 3 4 4 5 5 5 5 5 5
7 6 5 5 4 4 4 4 4 2 2 3 4 2 2 3 2 3 4 4 6 7 7 9 10 10 9 7 6 6 5 6 7 8 8 8 8 8 9 9 9 9 9 8 8 10 10 7 3 2 1 2 5 7 7 7 6 5 5 5 5 5 5 5 5 5 6 7 9 9 8 8 8 8 10 11 12 12 11 9 8 8 7 7 7 6 6 5 5 5 5 5 5 6 6 7 7
6 6 6 5 5 5 5 4 4 4 3 3 4 4 4 5 5 6 7 8 10 10 9 10 9 8 6 5 5 5 6 7 8 8 8 8 8 8 9 9 8 8 7 7 8 8 8 4 2 1 1 4 7 8 9 8 7 6 6 6 6 5 6 6 6 5 5 5 6 7 8 8 8 8 7 8 8 9 9 8 8 7 7 7 7 8 8 8 8 7 8 8 8 9 10 11 12
5 6 6 7 8 7 6 6 5 4 4 5 5 5 5 6 8 8 8 10 10 10 9 7 6 6 5 5 6 7 8 8 9 8 8 8 7 7 9 9 8 7 6 6 7 5 4 2 2 3 5 7 9 9 10 9 8 7 7 7 7 7 6 6 6 6 6 5 5 5 6 6 7 7 7 7 7 7 7 7 7 7 7 7 7 8 9 10 10 11 11 11 10 10 9 9 9
6 6 6 6 6 7 7 7 7 6 6 7 7 7 6 6 7 6 7 8 8 7 6 6 6 7 7 7 8 9 9 10 10 9 8 8 6 6 8 8 7 7 6 5 5 4 3 4 4 6 7 8 10 10 10 10 10 9 8 9 9 9 8 7 7 7 7 6 6 6 6 6 6 5 6 6 6 6 6 6 6 7 7 7 8 8 8 9 9 8 7 6 6 5 5 4 3
4 5 5 5 5 7 8 8 10 9 8 8 7 6 6 6 6 6 6 6 8 8 7 5 5 6 8 8 9 10 9 9 10 10 9 8 6 7 7 7 6 6 6 5 5 5 5 6 7 8 8 9 11 10 10 11 11 11 10 10 11 11 11 10 11 11 10 9 8 7 7 7 7 7 6 5 5 5 5 5 4 4 4 4 4 4 4 4 3 3 2 2 2 2 2 2 2
5 5 5 6 6 7 8 8 11 11 8 9 10 8 7 7 6 6 5 6 8 9 7 5 5 9 10 9 8 10 10 9 10 10 9 8 7 7 7 6 6 6 5 5 6 7 7 8 8 9 9 10 11 10 10 11 10 10 9 10 10 10 11 12 12 12 12 12 11 10 10 10 9 9 9 8 7 7 7 6 5 5 4 4 4 4 3 3 3 3 3 3 3 4 4 4 4
5 5 5 6 7 8 7 7 10 10 6 6 9 8 7 7 7 7 6 6 8 7 8 7 7 10 9 10 10 10 10 9 11 11 9 9 8 7 7 6 6 6 6 6 7 9 9 9 10 10 10 10 10 10 10 10 9 8 8 8 8 8 9 9 9 9 10 11 11 10 10 11 11 11 11 11 11 10 10 10 9 9 9 8 8 8 7 7 7 7 6 6 6 6 6 6 5
7 6 6 6 7 7 6 5 6 6 5 3 4 4 7 10 10 9 8 9 9 7 8 8 9 10 9 12 10 8 11 10 11 11 9 10 10 8 7 7 7 7 7 8 9 10 10 11 11 11 10 10 10 9 8 8 7 7 7 7 7 7 7 6 6 7 7 7 7 8 8 8 9 9 10 10 10 10 11 11 11 11 11 11 12 11 11 11 10 10 10 9 9 8 8 8 8
7 7 5 4 6 7 5 6 6 5 5 4 5 2 2 11 11 6 6 9 10 8 7 9 11 12 11 13 9 8 11 11 12 11 9 12 11 8 8 7 8 8 8 9 9 10 11 11 11 10 10 9 9 8 7 7 6 6 5 5 5 5 4 4 4 4 4 4 4 4 5 5 6 6 6 7 7 8 8 8 9 9 10 10 11 10 11 11 11 11 11 11 11 11 11 10 10
7 7 3 3 5 6 4 6 7 5 1 3 12 4 -8 3 11 6 4 7 10 9 8 12 14 13 12 13 11 10 12 12 12 10 9 13 11 8 8 7 8 8 9 10 9 10 10 11 11 10 9 8 7 6 5 5 4 4 4 4 4 4 4 5 4 4 4 3 3 3 3 4 4 4 4 4 5 5 5 5 6 6 6 7 7 7 8 8 8 9 9 9 9 10 10 10 9
7 7 7 8 9 7 4 5 7 5 0 4 13 10 -1 -1 4 6 5 7 9 9 11 14 14 12 12 14 13 13 14 12 10 9 11 14 11 8 9 8 9 9 9 10 9 10 10 10 10 9 7 7 6 5 4 4 3 3 4 4 5 6 7 7 7 7 7 7 6 6 6 5 5 5 4 4 4 4 4 4 4 4 4 4 4 5 5 5 5 5 6 6 6 6 6 6 6
7 10 12 12 11 10 7 8 10 6 5 9 9 12 13 1 -1 7 8 8 9 8 12 15 12 10 11 14 15 14 13 10 8 9 12 13 11 9 9 9 9 9 9 9 9 10 10 10 9 7 6 5 4 4 3 3 3 4 5 5 7 7 7 8 9 10 10 11 10 10 10 9 9 9 8 8 7 6 6 5 6 5 5 5 4 5 5 5 5 4 4 4 4 5 5 5 5
14 12 11 9 9 11 11 11 10 6 6 7 2 9 16 2 0 13 10 9 10 6 12 15 11 10 10 13 14 12 11 9 9 11 12 13 11 9 9 9 9 9 9 9 9 9 9 8 7 6 5 4 3 3 3 4 5 4 4 6 7 6 7 8 8 9 9 10 10 10 10 8 8 8 8 9 9 8 9 9 8 8 8 8 7 6 6 5 5 5 5 5 5 5 5 6 6
8 5 5 6 7 8 11 9 7 6 4 3 -0 8 17 4 1 14 9 8 11 6 10 15 11 9 9 12 13 10 9 9 9 11 12 13 12 10 10 9 9 9 9 8 8 9 8 6 5 5 4 3 3 4 4 5 6 4 4 6 6 5 7 8 8 8 8 9 9 8 8 7 6 6 7 7 8 8 6 3 3 6 11 12 11 9 8 7 7 7 6 6 6 6 6 6 7
2 4 3 3 6 6 7 5 3 5 7 9 4 2 14 9 -0 9 10 7 10 8 10 13 11 10 10 12 13 10 8 8 10 11 11 11 11 10 10 9 9 9 9 9 8 8 7 5 4 3 3 3 3 4 4 5 6 5 4 6 6 4 5 8 9 9 9 9 8 9 9 9 9 8 8 7 6 4 -1 -1 5 11 15 17 16 15 12 10 9 8 8 8 7 7 6 6 7
3 2 3 2 3 5 6 2 1 5 6 9 5 -2 9 13 1 7 14 9 9 8 10 14 11 10 13 13 12 9 9 8 8 11 12 11 10 10 10 10 9 9 8 8 7 7 5 4 4 3 3 3 4 4 3 4 5 4 4 5 6 5 5 8 9 8 9 8 9 9 10 11 12 12 12 12 13 11 9 11 13 12 12 14 16 18 18 16 14 11 10 9 9 8 8 7 7
6 -0 5 4 -1 2 7 3 3 9 7 6 4 -1 7 12 5 9 14 11 12 7 7 14 12 11 13 11 9 8 8 9 8 9 11 11 10 10 11 10 9 8 8 8 7 6 4 3 3 3 3 3 3 3 3 3 4 4 3 4 5 6 6 8 8 7 8 8 8 8 8 8 9 9 11 14 17 19 18 16 11 5 4 4 5 9 13 16 17 16 15 14 13 12 10 9 8
5 2 7 6 0 3 7 6 5 8 7 7 6 3 9 9 2 9 14 11 13 8 6 13 13 12 11 7 6 6 7 10 10 10 9 10 11 9 9 10 9 8 7 7 6 5 4 3 3 3 2 3 3 3 3 3 3 4 4 4 5 6 7 8 7 7 7 7 5 4 4 4 4 5 7 8 12 15 15 11 6 3 3 3 4 5 5 6 8 10 12 12 13 13 13 12 11
1 3 8 9 9 7 5 5 10 12 9 7 6 6 11 4 -6 4 13 13 14 9 9 16 15 12 10 7 5 5 6 7 10 13 11 9 10 10 10 8 8 8 7 7 6 5 4 3 3 3 2 3 3 2 3 3 3 3 4 5 5 6 8 8 7 7 7 4 3 2 2 3 4 5 5 6 8 11 11 11 9 9 11 11 11 10 9 8 7 6 6 6 6 7 7 6 6
1 3 5 8 11 10 6 6 9 12 8 5 5 3 5 8 1 1 6 11 15 10 7 14 16 13 9 7 8 8 8 6 6 11 15 13 10 9 10 8 7 7 7 7 6 5 5 3 3 2 2 3 3 3 3 3 3 3 4 6 5 6 9 9 6 7 6 3 2 3 3 3 3 4 6 7 7 8 10 11 12 12 13 13 13 13 12 11 11 10 10 9 8 7 6 5 3
7 10 4 1 3 5 6 6 6 6 4 5 7 3 4 13 7 -2 4 10 13 11 6 8 13 13 8 6 8 9 11 11 7 7 12 16 14 9 8 8 7 6 5 6 6 5 4 4 3 3 2 3 3 3 4 3 3 3 4 7 6 6 10 10 7 6 5 2 0 -0 -1 -0 1 1 3 5 6 8 8 7 7 6 6 5 6 6 6 6 7 8 9 10 10 10 11 11 11
4 10 8 3 4 5 4 5 3 3 5 7 9 5 6 11 3 -3 6 10 10 13 11 7 8 10 9 6 4 6 10 12 12 11 10 13 16 15 11 8 7 6 5 5 5 5 5 4 4 3 3 3 3 3 4 4 3 2 5 8 7 7 11 10 8 5 3 1 -2 -3 -3 -3 -3 -4 -2 2 4 5 3 1 -1 -2 -3 -2 -2 -2 -1 -2 -2 -3 -2 -0 1 3 6 8 10
-3 3 9 6 5 7 7 7 2 3 9 10 9 6 6 10 6 1 5 7 8 11 11 9 10 9 10 10 5 5 6 6 9 12 12 13 14 16 16 13 9 6 5 5 4 5 5 4 4 4 4 4 4 4 5 4 3 3 7 9 7 8 10 11 9 6 3 2 -1 -3 -4 -7 -9 -8 -5 -1 2 2 0 -3 -7 -9 -8 -7 -6 -5 -3 -3 -3 -4 -5 -5 -5 -4 -3 -1 2
-4 2 9 8 4 4 6 8 4 4 7 5 6 9 9 10 7 4 5 4 6 7 6 9 11 10 12 12 9 6 5 4 4 5 8 11 13 15 16 17 15 12 8 6 5 5 5 5 4 4 4 5 4 4 5 4 3 5 9 9 7 8 9 10 10 7 4 3 1 -1 -4 -8 -9 -6 -2 1 3 2 -1 -3 -5 -8 -9 -9 -9 -8 -7 -5 -3 -2 -1 -0 0 -1 -2 -2 -2
1 3 5 8 9 8 7 5 3 2 3 5 6 4 7 8 6 6 5 3 5 6 5 7 7 10 13 12 11 9 6 5 4 3 3 5 10 14 14 15 17 17 14 10 8 7 6 6 5 5 5 5 5 5 5 4 5 7 10 9 8 9 9 9 9 7 5 3 2 1 -1 -1 1 4 7 10 11 9 5 2 -0 -3 -6 -7 -9 -10 -10 -8 -5 -2 0 3 4 5 5 2 -0
5 4 3 6 7 10 12 9 8 6 3 7 6 -2 5 11 6 6 5 3 5 5 5 7 6 7 9 10 10 10 8 7 5 5 5 3 5 10 13 14 14 16 17 15 13 11 10 9 8 7 6 6 6 6 6 6 7 9 9 8 9 10 10 9 8 7 7 5 5 5 5 7 8 10 11 13 15 15 15 12 7 5 2 -1 -4 -5 -5 -4 -1 1 2 3 5 7 6 2 1
Height
5801 5801 5801 5802 5802 5803 5803 5804 5804 5804 5806 5804 5804 5804 5804 5806 5806 5806 5807 5807 5808 5809 5810 5811 5811 5812 5813 5813 5813 5813 5813 5813 5813 5813 5813 5814 5815 5815 5814 5813 5813 5813 5812 5811 5811 5810 5809 5809 5808 5807 5806 5805 5803 5802 5801 5799 5798 5796 5794 5792 5791 5789 5787 5785 5782 5780 5778 5776 5774 5773 5771 5769 5768 5766 5765 5764 5763 5763 5762 5762 5761 5761 5761 5760 5760 5761 5762 5763 5764 5766 5768 5770 5771 5772 5773 5774 5775
5798 5798 5798 5798 5799 5799 5800 5801 5801 5800 5803 5801 5802 5802 5801 5803 5803 5803 5804 5805 5806 5807 5808 5808 5809 5810 5811 5811 5811 5811 5811 5811 5811 5812 5811 5812 5812 5812 5812 5811 5811 5811 5810 5810 5809 5809 5808 5807 5806 5805 5804 5802 5801 5800 5798 5797 5795 5794 5792 5790 5788 5786 5784 5782 5779 5777 5775 5773 5771 5769 5767 5765 5763 5762 5761 5760 5759 5758 5758 5757 5757 5757 5756 5756 5756 5757 5757 5758 5760 5762 5764 5765 5767 5768 5769 5771 5772
5794 5794 5794 5795 5795 5796 5796 5797 5798 5798 5800 5799 5798 5799 5799 5800 5799 5800 5802 5802 5803 5804 5805 5806 5807 5807 5808 5809 5809 5810 5809 5808 5809 5810 5810 5810 5810 5810 5810 5809 5809 5809 5809 5809 5808 5808 5807 5806 5805 5804 5802 5801 5799 5797 5796 5795 5793 5791 5789 5787 5785 5783 5781 5779 5776 5774 5772 5770 5768 5765 5763 5761 5759 5757 5756 5755 5754 5754 5755 5754 5753 5752 5752 5753 5753 5753 5754 5755 5756 5758 5760 5761 5763 5764 5766 5768 5769
5791 5791 5791 5791 5791 5792 5793 5794 5795 5795 5797 5797 5796 5796 5797 5796 5797 5798 5799 5800 5801 5802 5803 5804 5805 5805 5806 5806 5807 5808 5807 5807 5808 5808 5808 5808 5808 5808 5808 5807 5808 5807 5808 5807 5807 5807 5806 5805 5803 5802 5800 5799 5797 5796 5794 5793 5791 5789 5787 5785 5783 5781 5778 5776 5774 5771 5769 5766 5764 5761 5759 5757 5755 5754 5752 5751 5750 5751 5752 5750 5749 5749 5749 5750 5750 5750 5751 5752 5753 5755 5757 5759 5760 5762 5764 5766 5767
5786 5786 5787 5787 5788 5788 5790 5790 5791 5793 5794 5793 5793 5794 5794 5793 5794 5796 5796 5797 5798 5799 5801 5802 5802 5803 5803 5804 5805 5805 5805 5805 5806 5806 5807 5807 5807 5807 5807 5807 5806 5806 5806 5806 5806 5805 5804 5803 5802 5800 5798 5797 5795 5794 5792 5791 5789 5787 5785 5783 5781 5778 5776 5774 5771 5768 5766 5763 5760 5758 5756 5754 5752 5751 5749 5748 5747 5748 5747 5746 5746 5747 5747 5747 5747 5747 5748 5749 5751 5753 5754 5756 5758 5760 5762 5763 5765
5783 5783 5783 5784 5784 5785 5786 5787 5788 5789 5789 5789 5790 5791 5791 5791 5792 5793 5794 5795 5796 5797 5798 5799 5800 5801 5801 5802 5802 5803 5803 5803 5804 5805 5805 5805 5806 5806 5806 5806 5805 5806 5806 5805 5805 5804 5803 5801 5800 5798 5797 5796 5794 5793 5791 5789 5787 5786 5783 5781 5778 5776 5774 5771 5769 5766 5763 5761 5758 5756 5754 5752 5750 5748 5747 5745 5745 5745 5744 5743 5744 5744 5744 5745 5745 5745 5746 5747 5748 5750 5752 5754 5756 5758 5759 5761 5762
5781 5781 5781 5781 5781 5782 5783 5784 5785 5785 5785 5787 5788 5788 5789 5790 5790 5791 5792 5793 5794 5795 5796 5797 5798 5799 5799 5800 5800 5801 5802 5802 5802 5803 5803 5804 5804 5804 5804 5804 5805 5805 5805 5804 5803 5802 5801 5800 5799 5797 5796 5795 5793 5791 5790 5788 5786 5784 5782 5779 5777 5774 5772 5769 5767 5764 5762 5759 5757 5755 5752 5750 5748 5746 5744 5743 5742 5742 5742 5742 5742 5742 5743 5742 5742 5742 5743 5745 5746 5748 5751 5753 5754 5756 5757 5759 5760
5780 5780 5779 5779 5779 5780 5781 5782 5782 5782 5783 5784 5785 5785 5787 5788 5788 5789 5790 5791 5792 5793 5795 5796 5797 5797 5797 5798 5799 5799 5800 5800 5801 5801 5801 5802 5802 5803 5803 5804 5804 5804 5804 5803 5802 5801 5800 5799 5798 5796 5795 5793 5792 5790 5788 5786 5784 5782 5780 5778 5776 5774 5771 5768 5766 5763 5761 5758 5756 5754 5752 5749 5747 5745 5743 5742 5741 5740 5741 5740 5741 5741 5741 5740 5740 5741 5742 5743 5745 5748 5750 5752 5753 5754 5756 5757 5759
5779 5778 5778 5778 5778 5779 5779 5780 5779 5780 5781 5782 5782 5784 5785 5786 5787 5787 5788 5789 5791 5792 5793 5794 5796 5796 5796 5797 5798 5798 5798 5799 5800 5800 5800 5801 5801 5802 5803 5803 5804 5803 5803 5802 5801 5800 5799 5798 5797 5795 5794 5792 5791 5789 5787 5784 5783 5781 5779 5777 5775 5773 5770 5767 5765 5762 5760 5758 5755 5753 5751 5749 5746 5744 5743 5742 5740 5739 5739 5739 5739 5739 5739 5739 5739 5739 5741 5744 5745 5748 5750 5751 5752 5754 5755 5756 5757
5778 5778 5777 5777 5777 5778 5778 5778 5778 5778 5779 5780 5781 5782 5783 5784 5785 5786 5787 5788 5790 5790 5791 5793 5794 5794 5795 5796 5796 5796 5797 5798 5799 5799 5799 5799 5800 5802 5802 5803 5803 5802 5802 5801 5800 5799 5798 5797 5796 5794 5793 5791 5789 5787 5785 5783 5782 5780 5778 5776 5774 5772 5769 5767 5764 5761 5759 5757 5755 5753 5751 5749 5747 5745 5743 5741 5740 5740 5739 5739 5739 5738 5737 5737 5738 5738 5740 5743 5745 5749 5751 5752 5752 5753 5754 5755 5756
5778 5777 5776 5777 5777 5777 5777 5777 5777 5777 5777 5778 5779 5780 5782 5783 5784 5785 5786 5787 5788 5789 5790 5792 5793 5793 5794 5795 5795 5795 5796 5797 5797 5798 5798 5799 5800 5801 5802 5802 5802 5801 5801 5800 5799 5799 5798 5796 5795 5794 5792 5790 5788 5786 5784 5783 5781 5779 5777 5775 5773 5771 5769 5766 5764 5761 5759 5757 5755 5753 5750 5749 5747 5745 5744 5742 5741 5741 5740 5739 5739 5738 5737 5738 5739 5738 5740 5742 5745 5749 5751 5752 5753 5753 5754 5755 5756
5777 5776 5776 5776 5776 5776 5776 5776 5775 5775 5776 5777 5778 5779 5781 5782 5783 5785 5786 5786 5787 5789 5790 5791 5792 5793 5794 5794 5794 5794 5795 5796 5796 5797 5798 5799 5800 5801 5801 5801 5801 5800 5800 5800 5799 5798 5797 5796 5794 5793 5791 5789 5787 5785 5784 5782 5781 5778 5776 5774 5773 5770 5768 5766 5764 5761 5759 5757 5755 5753 5751 5749 5747 5746 5745 5743 5742 5742 5740 5740 5739 5739 5739 5740 5742 5740 5740 5743 5745 5749 5751 5752 5753 5752 5753 5754 5755
5777 5776 5776 5776 5775 5775 5775 5775 5774 5775 5775 5776 5777 5779 5780 5782 5783 5784 5785 5786 5787 5788 5789 5790 5791 5792 5793 5793 5793 5793 5794 5795 5796 5797 5798 5799 5799 5800 5800 5800 5800 5800 5800 5799 5798 5797 5796 5795 5794 5792 5790 5788 5786 5785 5783 5781 5779 5777 5775 5774 5772 5770 5768 5766 5764 5762 5760 5758 5756 5753 5751 5749 5748 5747 5746 5744 5743 5743 5742 5741 5741 5741 5742 5742 5744 5743 5742 5744 5747 5749 5751 5752 5752 5752 5753 5753 5754
5776 5775 5775 5775 5774 5774 5774 5774 5774 5774 5774 5775 5777 5778 5780 5781 5782 5783 5784 5785 5786 5787 5788 5789 5790 5790 5792 5793 5793 5793 5794 5795 5796 5797 5798 5799 5799 5799 5799 5799 5800 5800 5799 5799 5798 5797 5796 5795 5793 5791 5789 5788 5786 5784 5782 5780 5779 5776 5774 5773 5772 5770 5769 5767 5765 5763 5760 5759 5756 5754 5752 5750 5749 5748 5747 5746 5745 5744 5744 5743 5743 5743 5744 5743 5745 5745 5744 5745 5748 5750 5751 5752 5752 5752 5752 5753 5753
5775 5775 5774 5774 5773 5773 5773 5773 5774 5774 5773 5774 5776 5777 5779 5780 5781 5782 5783 5785 5786 5786 5787 5789 5790 5790 5791 5792 5792 5793 5794 5795 5796 5797 5798 5799 5799 5799 5799 5799 5799 5799 5799 5798 5798 5797 5796 5794 5792 5790 5789 5787 5785 5783 5782 5780 5778 5776 5774 5773 5772 5771 5769 5767 5765 5763 5762 5760 5758 5755 5753 5752 5750 5749 5749 5748 5746 5745 5745 5745 5744 5745 5745 5745 5746 5747 5746 5747 5749 5750 5752 5752 5752 5752 5752 5753 5753
5774 5774 5773 5773 5773 5772 5772 5773 5773 5773 5773 5774 5776 5777 5778 5779 5780 5781 5782 5784 5785 5786 5787 5788 5790 5790 5790 5791 5792 5793 5794 5796 5797 5797 5798 5798 5798 5799 5799 5799 5799 5799 5799 5798 5798 5797 5795 5794 5792 5790 5788 5786 5785 5783 5781 5780 5778 5776 5774 5773 5772 5771 5769 5768 5766 5764 5763 5761 5759 5757 5755 5753 5751 5751 5750 5749 5748 5747 5747 5747 5747 5747 5747 5748 5748 5748 5748 5749 5750 5751 5752 5752 5752 5752 5753 5753 5754
5774 5773 5773 5772 5772 5772 5772 5772 5772 5773 5773 5774 5775 5777 5778 5778 5779 5780 5782 5783 5784 5785 5787 5788 5789 5789 5790 5791 5792 5793 5794 5796 5797 5798 5798 5798 5798 5799 5799 5799 5799 5799 5799 5798 5798 5797 5795 5794 5792 5790 5788 5786 5784 5783 5781 5780 5778 5776 5774 5773 5772 5771 5770 5768 5767 5765 5764 5762 5760 5758 5756 5754 5752 5752 5751 5750 5750 5750 5749 5750 5749 5749 5749 5749 5750 5750 5750 5751 5752 5752 5752 5752 5752 5753 5753 5754 5754
5773 5773 5772 5772 5772 5771 5771 5771 5771 5772 5773 5774 5775 5776 5777 5778 5779 5780 5782 5783 5784 5785 5786 5787 5788 5789 5789 5791 5792 5793 5795 5796 5797 5798 5798 5798 5799 5799 5799 5799 5799 5799 5799 5798 5798 5797 5795 5794 5792 5790 5788 5786 5784 5783 5782 5780 5778 5776 5775 5774 5773 5772 5771 5769 5768 5767 5765 5763 5761 5759 5757 5755 5754 5753 5752 5752 5751 5751 5751 5751 5751 5750 5750 5750 5751 5751 5752 5752 5753 5752 5752 5753 5753 5753 5754 5754 5754
5773 5773 5773 5773 5772 5771 5770 5770 5771 5772 5773 5774 5775 5776 5777 5778 5779 5780 5781 5782 5783 5784 5786 5787 5788 5789 5790 5791 5793 5794 5795 5797 5797 5798 5798 5799 5799 5799 5799 5799 5799 5799 5799 5798 5798 5797 5796 5794 5792 5790 5788 5786 5785 5783 5782 5780 5779 5777 5776 5775 5774 5773 5772 5770 5769 5768 5766 5765 5763 5761 5759 5757 5756 5754 5754 5753 5753 5752 5752 5752 5752 5752 5752 5752 5753 5753 5753 5753 5753 5753 5754 5754 5754 5754 5754 5754 5755
5773 5773 5773 5773 5772 5771 5771 5771 5772 5773 5774 5775 5776 5776 5777 5778 5779 5780 5781 5782 5783 5784 5785 5786 5787 5789 5790 5792 5794 5795 5796 5797 5798 5798 5799 5800 5800 5799 5800 5800 5799 5799 5799 5798 5798 5797 5796 5794 5792 5790 5788 5786 5785 5783 5782 5781 5779 5778 5777 5777 5775 5774 5773 5772 5771 5769 5768 5766 5765 5763 5761 5759 5758 5756 5755 5755 5755 5754 5754 5754 5754 5754 5753 5754 5754 5754 5754 5754 5754 5755 5755 5755 5755 5755 5755 5755 5755
5774 5773 5773 5773 5773 5772 5771 5771 5772 5774 5775 5776 5776 5777 5777 5778 5779 5780 5781 5781 5783 5783 5785 5787 5788 5790 5791 5793 5795 5796 5797 5798 5798 5799 5800 5800 5800 5800 5800 5800 5800 5799 5799 5799 5798 5797 5796 5794 5792 5791 5789 5787 5785 5784 5782 5781 5781 5780 5779 5778 5777 5775 5774 5773 5772 5770 5769 5768 5766 5764 5763 5761 5760 5759 5758 5757 5757 5757 5756 5756 5756 5756 5755 5755 5755 5754 5755 5755 5755 5756 5756 5756 5756 5756 5756 5756 5756
5775 5774 5774 5774 5774 5773 5772 5773 5774 5775 5776 5776 5777 5777 5778 5779 5779 5779 5780 5781 5783 5784 5785 5787 5790 5792 5793 5795 5796 5797 5798 5799 5799 5800 5800 5800 5800 5800 5800 5800 5800 5800 5800 5799 5798 5797 5796 5795 5793 5791 5790 5788 5786 5785 5784 5783 5782 5781 5779 5778 5777 5776 5775 5774 5773 5772 5770 5769 5767 5766 5764 5763 5762 5761 5760 5760 5759 5759 5758 5758 5758 5757 5757 5757 5756 5756 5756 5756 5756 5756 5757 5757 5757 5757 5757 5757 5757
5776 5775 5775 5775 5775 5775 5774 5774 5775 5776 5777 5777 5777 5778 5778 5779 5779 5779 5781 5782 5784 5785 5787 5789 5791 5794 5795 5796 5797 5798 5799 5800 5800 5800 5800 5800 5800 5800 5800 5800 5800 5800 5800 5799 5799 5798 5796 5795 5794 5792 5791 5789 5787 5786 5785 5784 5783 5781 5780 5779 5778 5777 5776 5775 5774 5773 5772 5770 5769 5768 5766 5765 5764 5763 5763 5762 5762 5761 5760 5760 5759 5759 5759 5758 5758 5758 5757 5757 5757 5758 5758 5758 5758 5759 5759 5758 5758
5778 5777 5778 5777 5777 5776 5776 5776 5777 5777 5777 5778 5778 5779 5779 5780 5781 5781 5782 5784 5786 5788 5790 5792 5793 5795 5797 5797 5798 5799 5800 5800 5800 5800 5800 5800 5800 5800 5800 5800 5800 5800 5800 5799 5799 5798 5797 5796 5795 5793 5792 5790 5789 5787 5786 5785 5784 5782 5781 5780 5779 5778 5777 5776 5775 5774 5773 5771 5770 5769 5768 5767 5767 5766 5765 5764 5764 5763 5762 5762 5761 5761 5760 5760 5760 5759 5759 5759 5759 5759 5759 5759 5759 5760 5760 5760 5759
5780 5780 5780 5780 5779 5779 5779 5779 5779 5779 5779 5780 5780 5781 5781 5782 5783 5784 5785 5787 5790 5791 5793 5794 5795 5797 5798 5798 5799 5799 5800 5800 5800 5800 5800 5800 5800 5800 5800 5800 5800 5800 5800 5800 5799 5799 5798 5797 5796 5795 5793 5792 5790 5789 5788 5786 5785 5783 5782 5781 5780 5779 5778 5777 5776 5775 5774 5772 5771 5771 5770 5769 5768 5768 5767 5766 5766 5765 5765 5764 5763 5763 5762 5762 5762 5761 5761 5761 5760 5760 5760 5760 5761 5761 5761 5761 5760
5783 5783 5783 5783 5782 5782 5781 5781 5782 5782 5782 5782 5783 5784 5784 5785 5786 5787 5788 5790 5792 5794 5795 5796 5797 5798 5799 5799 5800 5800 5800 5800 5800 5800 5800 5800 5800 5800 5800 5800 5800 5800 5800 5800 5800 5799 5798 5798 5797 5796 5795 5793 5792 5790 5789 5788 5786 5785 5783 5783 5781 5780 5779 5778 5777 5776 5775 5774 5773 5772 5771 5771 5770 5769 5769 5768 5767 5767 5767 5766 5765 5765 5764 5764 5764 5763 5763 5763 5762 5762 5762 5762 5762 5761 5761 5761 5761
5786 5786 5786 5786 5785 5785 5784 5784 5785 5785 5785 5785 5786 5786 5787 5788 5789 5790 5792 5793 5794 5795 5797 5798 5798 5799 5800 5800 5800 5800 5800 5800 5800 5800 5800 5800 5800 5800 5801 5800 5800 5800 5801 5801 5801 5800 5799 5799 5798 5797 5796 5795 5794 5792 5791 5789 5788 5786 5785 5784 5782 5781 5780 5779 5778 5777 5776 5775 5774 5773 5773 5772 5772 5771 5770 5769 5769 5769 5768 5768 5767 5766 5766 5766 5765 5765 5765 5765 5765 5764 5764 5763 5763 5763 5763 5762 5762
5788 5788 5789 5789 5788 5788 5788 5788 5788 5788 5788 5789 5789 5789 5791 5792 5793 5794 5795 5796 5796 5798 5798 5799 5800 5800 5800 5801 5801 5801 5800 5800 5800 5800 5800 5801 5801 5801 5801 5801 5801 5801 5801 5801 5801 5801 5800 5800 5799 5798 5798 5796 5795 5794 5792 5791 5789 5788 5786 5785 5783 5782 5781 5780 5779 5778 5777 5776 5775 5775 5774 5774 5773 5773 5772 5771 5771 5770 5770 5769 5769 5768 5768 5767 5767 5767 5767 5767 5767 5766 5766 5765 5765 5764 5764 5764 5763
5791 5791 5792 5792 5792 5791 5791 5791 5791 5791 5791 5792 5793 5793 5794 5795 5796 5797 5798 5798 5799 5799 5800 5800 5801 5801 5801 5801 5801 5801 5800 5800 5801 5801 5801 5801 5801 5801 5801 5801 5801 5801 5802 5802 5802 5802 5801 5801 5800 5800 5799 5798 5797 5795 5794 5792 5790 5789 5788 5786 5785 5784 5782 5781 5780 5780 5779 5778 5777 5776 5776 5775 5775 5774 5773 5772 5772 5772 5772 5771 5771 5770 5770 5769 5769 5769 5769 5769 5769 5768 5768 5767 5767 5766 5766 5765 5765
5794 5794 5795 5795 5795 5795 5794 5794 5794 5794 5795 5796 5795 5796 5797 5798 5798 5799 5800 5800 5800 5801 5801 5801 5801 5801 5801 5801 5801 5801 5801 5801 5801 5801 5802 5802 5802 5802 5802 5802 5802 5802 5802 5802 5802 5802 5802 5802 5801 5801 5800 5799 5798 5796 5795 5793 5792 5791 5789 5788 5787 5785 5784 5783 5782 5781 5781 5780 5779 5778 5778 5777 5776 5775 5775 5774 5774 5773 5773 5773 5773 5773 5772 5772 5771 5771 5771 5771 5770 5770 5770 5769 5768 5768 5767 5767 5766
5797 5797 5798 5798 5798 5798 5798 5797 5797 5797 5798 5798 5798 5798 5800 5800 5800 5801 5801 5801 5802 5801 5802 5802 5802 5802 5802 5802 5801 5801 5802 5802 5802 5802 5802 5802 5802 5802 5803 5803 5802 5803 5803 5803 5803 5803 5803 5803 5802 5802 5801 5800 5799 5797 5796 5794 5793 5792 5791 5789 5788 5787 5786 5785 5784 5783 5783 5782 5781 5781 5780 5779 5778 5777 5776 5776 5775 5775 5775 5775 5775 5775 5774 5774 5774 5773 5773 5772 5772 5771 5771 5771 5770 5770 5769 5768 5768
5799 5800 5801 5801 5801 5801 5800 5800 5800 5800 5800 5800 5799 5800 5802 5802 5802 5802 5802 5802 5802 5802 5802 5802 5802 5802 5802 5802 5802 5802 5802 5802 5802 5803 5803 5803 5803 5803 5803 5803 5803 5803 5804 5804 5804 5804 5804 5804 5803 5803 5802 5801 5800 5798 5797 5795 5794 5793 5792 5791 5790 5789 5788 5787 5787 5786 5785 5784 5783 5783 5782 5781 5780 5779 5779 5778 5777 5777 5777 5777 5776 5776 5776 5776 5776 5776 5775 5774 5774 5773 5772 5772 5772 5772 5771 5770 5770
5802 5802 5803 5804 5803 5803 5803 5802 5802 5802 5802 5802 5802 5802 5803 5803 5803 5803 5803 5803 5803 5803 5803 5803 5803 5803 5803 5803 5803 5803 5803 5803 5803 5803 5803 5804 5804 5804 5804 5804 5804 5804 5804 5805 5805 5805 5805 5804 5804 5803 5803 5802 5800 5799 5798 5796 5795 5794 5793 5792 5792 5791 5790 5790 5789 5788 5787 5786 5785 5785 5784 5783 5783 5782 5781 5780 5780 5779 5779 5779 5779 5778 5778 5778 5778 5778 5777 5777 5776 5775 5774 5773 5773 5773 5773 5772 5771
5804 5804 5805 5806 5805 5805 5805 5804 5804 5804 5804 5804 5804 5805 5805 5804 5804 5804 5804 5804 5804 5804 5804 5804 5804 5804 5804 5804 5803 5803 5803 5803 5804 5804 5804 5804 5804 5805 5805 5805 5805 5805 5805 5806 5806 5806 5805 5805 5805 5804 5803 5802 5801 5800 5799 5798 5797 5796 5795 5794 5793 5793 5792 5791 5791 5790 5789 5788 5787 5787 5786 5785 5784 5784 5783 5782 5782 5781 5781 5781 5780 5780 5780 5780 5780 5780 5779 5779 5778 5777 5776 5775 5775 5774 5774 5774 5773
5806 5806 5806 5807 5807 5807 5807 5806 5806 5806 5806 5806 5806 5806 5806 5805 5805 5805 5805 5805 5805 5805 5805 5805 5804 5804 5804 5804 5804 5804 5804 5804 5804 5804 5804 5805 5805 5805 5806 5806 5806 5806 5806 5806 5807 5806 5806 5806 5805 5805 5804 5803 5802 5801 5800 5799 5798 5797 5796 5796 5795 5794 5794 5793 5792 5791 5791 5790 5789 5789 5788 5787 5786 5785 5785 5784 5784 5783 5783 5782 5782 5782 5782 5781 5781 5781 5780 5780 5780 5779 5778 5777 5776 5776 5775 5775 5775
5807 5807 5807 5808 5808 5808 5808 5808 5808 5807 5807 5807 5807 5807 5807 5806 5806 5806 5806 5806 5806 5806 5805 5805 5805 5805 5805 5805 5804 5804 5804 5804 5804 5805 5805 5805 5806 5806 5806 5807 5807 5807 5807 5807 5807 5807 5807 5806 5806 5805 5804 5804 5803 5802 5801 5800 5799 5798 5798 5797 5796 5796 5795 5795 5794 5793 5792 5792 5791 5790 5789 5789 5788 5787 5786 5786 5785 5785 5784 5784 5784 5783 5783 5782 5782 5782 5781 5781 5781 5780 5780 5779 5778 5778 5777 5777 5776
5808 5808 5809 5809 5809 5809 5809 5809 5809 5809 5808 5808 5808 5808 5808 5808 5807 5807 5807 5807 5807 5806 5806 5806 5805 5805 5805 5805 5805 5805 5805 5804 5805 5805 5806 5806 5806 5807 5807 5807 5807 5808 5808 5808 5808 5807 5807 5807 5806 5806 5805 5805 5804 5803 5802 5801 5801 5800 5799 5799 5798 5797 5797 5796 5796 5795 5794 5793 5792 5792 5791 5790 5789 5789 5788 5787 5787 5787 5786 5786 5785 5785 5784 5784 5783 5783 5783 5782 5782 5782 5781 5781 5780 5780 5779 5779 5778
5809 5809 5810 5810 5810 5810 5810 5810 5810 5810 5809 5810 5810 5809 5809 5808 5808 5808 5807 5807 5807 5806 5806 5806 5805 5805 5805 5805 5805 5805 5805 5805 5805 5806 5806 5807 5807 5807 5807 5808 5808 5808 5808 5808 5808 5808 5807 5807 5807 5806 5806 5805 5805 5804 5803 5803 5802 5801 5801 5800 5800 5799 5799 5798 5797 5796 5795 5795 5794 5793 5792 5791 5791 5790 5789 5789 5788 5788 5788 5787 5787 5786 5786 5785 5785 5784 5784 5784 5783 5783 5783 5782 5782 5781 5781 5780 5780
5810 5810 5811 5811 5811 5811 5811 5810 5810 5810 5810 5810 5810 5810 5809 5809 5808 5808 5807 5807 5807 5806 5806 5806 5805 5805 5805 5805 5805 5805 5806 5806 5806 5806 5807 5808 5808 5808 5808 5808 5808 5808 5808 5808 5808 5808 5808 5808 5808 5807 5807 5806 5806 5805 5804 5804 5803 5803 5803 5802 5802 5801 5800 5800 5799 5798 5797 5796 5795 5795 5794 5793 5792 5792 5791 5790 5790 5789 5789 5788 5788 5787 5787 5787 5786 5786 5785 5785 5784 5784 5784 5783 5783 5782 5782 5781 5781
5811 5811 5812 5812 5812 5812 5811 5811 5811 5811 5810 5811 5811 5810 5810 5810 5809 5809 5808 5807 5807 5806 5806 5805 5805 5805 5805 5805 5806 5806 5806 5806 5807 5807 5808 5808 5808 5808 5808 5808 5808 5808 5808 5808 5808 5808 5808 5808 5808 5808 5807 5807 5807 5806 5806 5805 5805 5805 5804 5804 5803 5803 5802 5802 5801 5800 5799 5798 5797 5796 5796 5795 5794 5793 5793 5792 5791 5791 5790 5790 5789 5789 5788 5788 5787 5787 5786 5786 5785 5785 5784 5784 5783 5783 5783 5782 5782
5812 5812 5812 5812 5812 5812 5812 5812 5812 5811 5811 5811 5810 5810 5810 5810 5810 5809 5809 5808 5807 5806 5806 5805 5805 5805 5805 5806 5806 5806 5806 5807 5807 5808 5808 5808 5808 5809 5809 5809 5809 5809 5809 5809 5809 5809 5809 5809 5809 5809 5808 5808 5808 5807 5807 5807 5806 5806 5806 5805 5805 5804 5804 5803 5802 5802 5801 5800 5799 5798 5797 5797 5796 5795 5795 5794 5793 5792 5792 5791 5791 5790 5790 5789 5788 5788 5787 5787 5786 5786 5785 5784 5784 5784 5783 5783 5782
5813 5813 5813 5813 5813 5813 5812 5812 5812 5812 5812 5811 5811 5811 5811 5811 5810 5810 5809 5809 5808 5807 5807 5806 5806 5806 5806 5806 5806 5806 5807 5807 5807 5808 5808 5809 5809 5809 5809 5809 5809 5809 5809 5809 5809 5809 5809 5809 5809 5809 5809 5809 5809 5809 5808 5808 5808 5807 5807 5807 5806 5806 5805 5805 5804 5803 5802 5801 5800 5800 5799 5798 5797 5797 5796 5796 5795 5794 5794 5793 5792 5792 5791 5791 5790 5789 5789 5788 5787 5787 5786 5786 5785 5784 5784 5783 5783
5815 5814 5814 5814 5814 5813 5813 5813 5813 5813 5813 5813 5812 5812 5812 5811 5811 5810 5810 5809 5809 5808 5807 5807 5806 5806 5806 5806 5806 5806 5807 5807 5808 5808 5808 5809 5809 5809 5809 5809 5809 5809 5809 5810 5810 5810 5810 5810 5810 5810 5810 5810 5810 5810 5810 5809 5809 5809 5808 5808 5807 5807 5806 5806 5805 5804 5803 5802 5802 5801 5800 5799 5799 5798 5797 5797 5796 5795 5795 5794 5794 5793 5792 5792 5791 5790 5790 5789 5788 5788 5787 5787 5786 5785 5785 5784 5783
5817 5815 5814 5815 5814 5814 5814 5814 5814 5814 5814 5814 5813 5813 5813 5813 5813 5811 5811 5810 5810 5809 5808 5808 5807 5807 5807 5807 5807 5807 5807 5808 5808 5808 5809 5809 5809 5809 5809 5809 5809 5810 5810 5810 5810 5811 5811 5811 5811 5811 5811 5811 5811 5811 5811 5811 5810 5810 5809 5809 5809 5808 5807 5807 5806 5805 5804 5803 5803 5802 5801 5800 5800 5799 5798 5798 5797 5796 5796 5795 5794 5794 5793 5792 5792 5791 5790 5790 5789 5789 5788 5787 5787 5786 5785 5785 5784
5817 5816 5816 5816 5815 5815 5815 5814 5814 5814 5815 5815 5815 5814 5814 5815 5814 5812 5812 5811 5810 5810 5809 5809 5808 5808 5808 5808 5808 5808 5808 5808 5808 5809 5809 5810 5810 5809 5809 5810 5810 5810 5810 5810 5811 5811 5811 5812 5812 5812 5812 5812 5812 5812 5812 5812 5811 5811 5811 5810 5809 5809 5808 5808 5807 5806 5805 5804 5803 5803 5802 5801 5800 5800 5799 5799 5798 5797 5797 5796 5795 5795 5794 5793 5792 5791 5791 5790 5790 5789 5789 5788 5787 5787 5786 5785 5785
5817 5817 5817 5816 5816 5816 5815 5815 5815 5815 5815 5816 5815 5815 5815 5816 5814 5813 5812 5812 5811 5811 5810 5810 5809 5809 5809 5808 5808 5808 5808 5809 5809 5809 5810 5810 5810 5810 5810 5810 5810 5810 5811 5811 5811 5812 5812 5812 5813 5813 5813 5813 5813 5813 5813 5813 5812 5812 5812 5811 5810 5810 5809 5809 5808 5807 5806 5805 5804 5803 5802 5802 5801 5801 5800 5799 5798 5798 5797 5797 5796 5795 5794 5794 5793 5792 5791 5791 5790 5790 5789 5788 5788 5787 5787 5786 5785
5817 5817 5817 5817 5817 5817 5816 5816 5816 5816 5816 5816 5816 5816 5816 5816 5814 5813 5813 5812 5812 5811 5811 5811 5810 5810 5809 5809 5809 5809 5809 5809 5809 5810 5810 5810 5810 5810 5810 5810 5810 5811 5811 5811 5812 5812 5813 5813 5813 5814 5814 5814 5814 5814 5814 5814 5813 5813 5813 5812 5812 5811 5811 5810 5809 5808 5807 5806 5805 5804 5804 5803 5802 5801 5801 5800 5799 5798 5798 5797 5796 5796 5795 5794 5793 5792 5792 5791 5790 5790 5789 5789 5788 5787 5787 5786 5785
5817 5817 5818 5818 5818 5817 5817 5817 5817 5817 5818 5817 5816 5816 5816 5816 5815 5814 5813 5813 5812 5812 5812 5812 5811 5811 5810 5810 5810 5810 5810 5810 5810 5810 5810 5810 5810 5810 5810 5811 5811 5811 5811 5812 5812 5812 5813 5813 5814 5814 5815 5815 5815 5815 5815 5814 5814 5814 5814 5813 5813 5812 5812 5811 5810 5809 5808 5807 5806 5805 5804 5804 5803 5802 5801 5801 5800 5799 5798 5797 5797 5796 5795 5794 5793 5793 5792 5791 5791 5790 5789 5789 5788 5788 5787 5786 5786
5817 5817 5818 5818 5819 5819 5818 5819 5818 5818 5818 5817 5816 5816 5816 5816 5815 5814 5814 5813 5813 5812 5812 5812 5812 5811 5811 5811 5811 5811 5810 5810 5810 5810 5810 5810 5811 5811 5811 5811 5811 5811 5812 5812 5813 5813 5813 5814 5814 5815 5815 5815 5815 5815 5815 5815 5815 5815 5814 5814 5814 5813 5813 5812 5811 5810 5810 5809 5807 5806 5805 5804 5804 5803 5802 5801 5800 5799 5798 5798 5797 5797 5796 5795 5794 5793 5792 5792 5791 5790 5790 5789 5789 5788 5787 5787 5786
5817 5817 5818 5819 5820 5819 5819 5820 5819 5818 5818 5817 5816 5816 5816 5816 5815 5815 5814 5813 5813 5813 5812 5813 5813 5812 5812 5812 5812 5811 5811 5811 5811 5811 5811 5811 5811 5811 5811 5811 5812 5812 5812 5813 5813 5813 5814 5814 5815 5815 5815 5815 5815 5815 5815 5815 5815 5815 5815 5814 5814 5814 5813 5813 5812 5811 5811 5810 5808 5807 5806 5805 5805 5804 5803 5802 5801 5800 5799 5798 5798 5797 5797 5796 5795 5794 5793 5792 5791 5791 5790 5790 5789 5788 5788 5787 5786
5817 5817 5818 5819 5819 5818 5819 5820 5819 5818 5818 5817 5816 5816 5817 5817 5816 5815 5815 5814 5813 5813 5813 5813 5813 5813 5813 5813 5813 5812 5811 5811 5811 5811 5811 5811 5811 5811 5811 5812 5812 5812 5812 5813 5813 5814 5814 5814 5815 5815 5815 5815 5816 5815 5815 5815 5815 5815 5815 5815 5814 5814 5813 5813 5813 5812 5811 5810 5809 5808 5807 5807 5806 5805 5804 5803 5802 5801 5800 5799 5798 5798 5797 5796 5795 5794 5793 5793 5792 5791 5790 5790 5789 5789 5788 5787 5786
5817 5817 5817 5817 5817 5817 5818 5819 5818 5818 5818 5817 5816 5816 5816 5817 5816 5815 5815 5814 5813 5813 5813 5813 5813 5813 5813 5813 5813 5812 5812 5811 5811 5811 5811 5811 5811 5811 5811 5812 5812 5812 5812 5813 5813 5814 5814 5815 5815 5815 5815 5815 5815 5815 5815 5815 5815 5815 5815 5815 5815 5814 5813 5813 5813 5812 5811 5811 5810 5809 5808 5808 5807 5806 5805 5804 5803 5802 5801 5800 5799 5798 5798 5797 5796 5795 5794 5793 5792 5791 5790 5790 5789 5789 5788 5787 5786
5816 5817 5817 5817 5817 5817 5817 5818 5818 5818 5818 5817 5816 5816 5816 5815 5815 5815 5814 5814 5814 5813 5813 5813 5813 5814 5813 5813 5813 5813 5812 5812 5811 5811 5811 5811 5811 5811 5811 5812 5812 5812 5812 5813 5813 5814 5814 5815 5815 5815 5815 5815 5815 5815 5815 5815 5815 5815 5815 5815 5814 5814 5813 5813 5813 5812 5812 5811 5811 5810 5809 5809 5808 5808 5807 5806 5805 5804 5802 5801 5800 5799 5798 5797 5796 5795 5794 5793 5792 5791 5790 5789 5788 5788 5787 5786 5785
5816 5816 5816 5816 5816 5817 5817 5817 5817 5817 5818 5818 5817 5816 5816 5816 5816 5815 5814 5814 5814 5813 5813 5813 5813 5813 5813 5813 5813 5813 5812 5812 5811 5811 5811 5811 5811 5811 5811 5811 5812 5812 5812 5812 5813 5813 5814 5814 5814 5815 5815 5815 5815 5815 5815 5815 5815 5815 5815 5815 5814 5814 5813 5813 5812 5812 5812 5811 5811 5810 5810 5809 5809 5808 5808 5807 5806 5805 5804 5802 5801 5800 5799 5798 5797 5796 5795 5794 5793 5791 5790 5789 5788 5787 5786 5785 5784
5815 5815 5815 5815 5816 5816 5816 5816 5817 5817 5818 5818 5817 5817 5816 5816 5816 5815 5814 5814 5813 5813 5813 5813 5813 5813 5813 5813 5813 5813 5813 5812 5812 5811 5811 5811 5811 5811 5811 5811 5811 5811 5811 5812 5812 5813 5813 5814 5814 5814 5814 5814 5814 5814 5814 5814 5814 5814 5814 5814 5814 5813 5813 5812 5812 5812 5812 5811 5811 5810 5810 5809 5808 5808 5807 5807 5806 5806 5804 5803 5801 5800 5799 5798 5796 5795 5795 5794 5793 5792 5790 5789 5788 5787 5785 5784 5783
5814 5814 5814 5814 5815 5815 5815 5815 5816 5816 5817 5818 5818 5818 5818 5817 5815 5814 5814 5814 5813 5813 5813 5812 5812 5812 5813 5813 5813 5813 5812 5812 5812 5811 5811 5811 5811 5811 5810 5810 5811 5811 5811 5811 5811 5812 5812 5812 5813 5813 5813 5813 5813 5814 5814 5814 5814 5814 5814 5814 5813 5813 5812 5811 5811 5811 5811 5811 5810 5810 5809 5808 5808 5807 5806 5806 5805 5805 5804 5803 5801 5800 5799 5797 5796 5795 5794 5793 5792 5791 5790 5789 5788 5786 5785 5783 5781
5813 5813 5813 5813 5814 5814 5814 5814 5815 5815 5816 5817 5817 5818 5818 5816 5814 5814 5813 5813 5813 5813 5813 5812 5812 5812 5812 5812 5812 5812 5812 5812 5811 5811 5811 5811 5811 5811 5810 5810 5810 5810 5810 5810 5810 5811 5811 5811 5811 5812 5812 5812 5813 5813 5813 5813 5813 5813 5813 5813 5812 5812 5811 5811 5810 5810 5810 5810 5810 5809 5808 5808 5807 5806 5805 5804 5804 5803 5802 5801 5800 5799 5798 5796 5795 5794 5793 5792 5792 5791 5790 5788 5787 5785 5784 5782 5780
5812 5812 5812 5812 5813 5813 5814 5814 5814 5814 5815 5815 5815 5816 5816 5814 5813 5814 5813 5813 5813 5812 5812 5812 5812 5812 5812 5812 5812 5812 5812 5811 5811 5811 5811 5811 5811 5810 5810 5810 5809 5809 5809 5809 5810 5810 5810 5810 5810 5811 5811 5811 5812 5812 5812 5812 5812 5811 5812 5811 5811 5811 5810 5810 5810 5809 5809 5809 5809 5808 5807 5807 5806 5805 5804 5803 5802 5801 5800 5799 5798 5797 5796 5795 5794 5793 5792 5791 5790 5790 5788 5787 5785 5784 5782 5780 5778